EW3173 Weather Reports


Display with metric or nautical units.
time (UTC)temp
F
wind
direction
speed
MPH
gust
MPH
rain 1hr
in
rain 24hr
in
rain mn
in
humidity
%
barometer
mb
20260906223304 91 355 1.0 3.0 0.00 0.00 0.00 32 1020.0
20260906221804 91 3 0.0 2.0 0.00 0.00 0.00 32 1020.3
20260906221304 91 11 0.0 0.0 0.00 0.00 0.00 33 1020.3
20260906220805 90 108 0.0 0.0 0.00 0.00 0.00 33 1020.5
20260906214808 90 345 0.0 0.0 0.00 0.00 0.00 33 1020.7
20260906214307 89 170 0.0 1.0 0.00 0.00 0.00 33 1020.8
20260906213805 90 170 0.0 3.0 0.00 0.00 0.00 32 1020.9
20260906213305 90 0 0.0 3.0 0.00 0.00 0.00 33 1021.0
20260906211805 91 280 0.0 0.0 0.00 0.00 0.00 31 1021.2
20260906210804 91 15 1.0 3.0 0.00 0.00 0.00 32 1021.5
20260906210305 91 182 0.0 5.0 0.00 0.00 0.00 31 1021.5
20260906204807 94 173 0.0 2.0 0.00 0.00 0.00 29 1021.8
20260906203805 96 35 0.0 3.0 0.00 0.00 0.00 31 1021.8
20260906203305 96 334 2.0 6.0 0.00 0.00 0.00 30 1021.9
20260906201805 94 342 0.0 2.0 0.00 0.00 0.00 32 1021.9
20260906201305 94 341 1.0 3.0 0.00 0.00 0.00 31 1022.0
20260906200804 95 349 1.0 3.0 0.00 0.00 0.00 31 1022.1
20260906200305 93 85 1.0 3.0 0.00 0.00 0.00 31 1022.1
20260906194306 95 11 2.0 3.0 0.00 0.00 0.00 31 1022.1
20260906193804 92 2 1.0 3.0 0.00 0.00 0.00 32 1022.3
20260906193304 91 40 1.0 2.0 0.00 0.00 0.00 31 1022.3
20260906191305 92 112 0.0 3.0 0.00 0.00 0.00 32 1022.7
20260906184808 89 31 1.0 3.0 0.00 0.00 0.00 37 1023.2
20260906184306 88 355 1.0 3.0 0.00 0.00 0.00 39 1023.4
20260906183805 88 107 1.0 3.0 0.00 0.00 0.00 38 1023.5
20260906183305 88 277 1.0 2.0 0.00 0.00 0.00 38 1023.6
20260906181805 88 2 1.0 3.0 0.00 0.00 0.00 39 1023.8
20260906181305 89 5 1.0 3.0 0.00 0.00 0.00 38 1023.9
20260906180805 88 23 1.0 3.0 0.00 0.00 0.00 39 1023.9
20260906180305 88 3 1.0 3.0 0.00 0.00 0.00 39 1023.9
20260906174307 84 19 0.0 3.0 0.00 0.00 0.00 43 1024.5
20260906173805 83 10 1.0 3.0 0.00 0.00 0.00 44 1024.6
20260906173304 83 0 1.0 3.0 0.00 0.00 0.00 44 1024.7
20260906171805 81 355 2.0 3.0 0.00 0.00 0.00 48 1025.0
20260906171304 80 285 1.0 2.0 0.00 0.00 0.00 49 1025.0
20260906170805 79 284 0.0 3.0 0.00 0.00 0.00 49 1025.2
20260906170304 79 281 1.0 3.0 0.00 0.00 0.00 48 1025.4
20260906164807 79 0 1.0 3.0 0.00 0.00 0.00 51 1025.4
20260906163804 77 278 1.0 3.0 0.00 0.00 0.00 54 1025.4
20260906163304 77 8 0.0 3.0 0.00 0.00 0.00 52 1025.4
20260906161805 75 353 1.0 3.0 0.00 0.00 0.00 59 1025.3
20260906161305 75 351 1.0 3.0 0.00 0.00 0.00 60 1025.2
20260906160805 74 349 0.0 3.0 0.00 0.00 0.00 60 1025.2
20260906160305 75 350 1.0 3.0 0.00 0.00 0.00 61 1025.2
20260906154808 74 23 1.0 3.0 0.00 0.00 0.00 62 1025.2
20260906154309 73 106 0.0 1.0 0.00 0.00 0.00 65 1025.3
20260906153805 72 328 0.0 3.0 0.00 0.00 0.00 65 1025.4
20260906153304 72 328 0.0 3.0 0.00 0.00 0.00 66 1025.3
20260906150805 69 355 1.0 3.0 0.00 0.00 0.00 70 1025.3
20260906144806 69 350 0.0 3.0 0.00 0.00 0.00 73 1025.3
20260906144307 68 330 1.0 5.0 0.00 0.00 0.00 74 1025.3
20260906143805 68 19 1.0 5.0 0.00 0.00 0.00 73 1025.3
20260906143304 69 19 1.0 5.0 0.00 0.00 0.00 72 1025.3
20260906141804 67 342 1.0 3.0 0.00 0.00 0.00 74 1025.3
20260906141305 67 355 0.0 3.0 0.00 0.00 0.00 75 1025.4
20260906140804 67 348 2.0 3.0 0.00 0.00 0.00 74 1025.4
20260906140305 66 296 0.0 5.0 0.00 0.00 0.00 74 1025.3
20260906134807 65 10 1.0 3.0 0.00 0.00 0.00 75 1025.3
20260906133805 65 303 0.0 2.0 0.00 0.00 0.00 76 1025.4
20260906133305 64 300 0.0 0.0 0.00 0.00 0.00 76 1025.4
20260906131804 63 308 0.0 0.0 0.00 0.00 0.00 75 1025.5
20260906131305 63 331 0.0 0.0 0.00 0.00 0.00 75 1025.5
20260906130805 63 339 0.0 0.0 0.00 0.00 0.00 77 1025.5
20260906124807 61 345 0.0 0.0 0.00 0.00 0.00 79 1025.4
20260906124307 61 345 0.0 0.0 0.00 0.00 0.00 79 1025.3
20260906123804 61 345 0.0 0.0 0.00 0.00 0.00 79 1025.4
20260906123305 61 345 0.0 0.0 0.00 0.00 0.00 78 1025.4
20260906121805 61 345 0.0 0.0 0.00 0.00 0.00 78 1025.3
20260906121305 62 345 0.0 0.0 0.00 0.00 0.00 79 1025.2
20260906120805 61 345 0.0 0.0 0.00 0.00 0.00 79 1025.1
20260906120305 62 345 0.0 0.0 0.00 0.00 0.00 78 1025.3
20260906114806 61 345 0.0 0.0 0.00 0.00 0.00 77 1025.3
20260906114306 62 345 0.0 0.0 0.00 0.00 0.00 77 1025.2
20260906113304 62 345 0.0 0.0 0.00 0.00 0.00 78 1025.2
20260906111804 62 345 0.0 0.0 0.00 0.00 0.00 77 1025.1
20260906111304 62 345 0.0 0.0 0.00 0.00 0.00 77 1025.1
20260906110804 63 345 0.0 0.0 0.00 0.00 0.00 76 1025.0
20260906110305 63 345 0.0 0.0 0.00 0.00 0.00 76 1025.0
20260906104807 63 348 0.0 0.0 0.00 0.00 0.00 75 1024.9
20260906103804 63 348 0.0 0.0 0.00 0.00 0.00 75 1025.0
20260906103304 64 348 0.0 0.0 0.00 0.00 0.00 74 1025.0
20260906101304 64 348 0.0 0.0 0.00 0.00 0.00 71 1025.0
20260906100305 64 348 0.0 0.0 0.00 0.00 0.00 71 1024.8
20260906094807 65 335 0.0 0.0 0.00 0.00 0.00 70 1024.9
20260906093804 65 350 0.0 0.0 0.00 0.00 0.00 67 1025.0
20260906093304 65 350 0.0 0.0 0.00 0.00 0.00 66 1025.0
20260906091805 66 350 0.0 0.0 0.00 0.00 0.00 63 1024.8
20260906091305 66 350 0.0 0.0 0.00 0.00 0.00 62 1024.7
20260906090804 66 350 0.0 0.0 0.00 0.00 0.00 61 1024.7
20260906084808 67 350 0.0 0.0 0.00 0.00 0.00 56 1024.6
20260906084308 68 350 0.0 0.0 0.00 0.00 0.00 55 1024.5
20260906083805 68 351 0.0 1.0 0.00 0.00 0.00 54 1024.5
20260906083305 68 355 0.0 2.0 0.00 0.00 0.00 52 1024.5
20260906081805 70 347 1.0 3.0 0.00 0.00 0.00 49 1024.5
20260906081304 70 342 0.0 2.0 0.00 0.00 0.00 49 1024.4
20260906080805 70 340 0.0 3.0 0.00 0.00 0.00 48 1024.4
20260906080304 71 340 0.0 3.0 0.00 0.00 0.00 48 1024.2
20260906074808 71 352 1.0 5.0 0.00 0.00 0.00 47 1024.0
20260906073805 70 348 2.0 3.0 0.00 0.00 0.00 48 1024.2
20260906073304 70 348 0.0 0.0 0.00 0.00 0.00 49 1024.2
20260906071804 70 178 0.0 2.0 0.00 0.00 0.00 49 1024.4
20260906071304 70 178 0.0 2.0 0.00 0.00 0.00 49 1024.3
20260906070805 70 178 0.0 2.0 0.00 0.00 0.00 50 1024.3
20260906070305 70 178 0.0 1.0 0.00 0.00 0.00 51 1024.2
20260906064807 69 178 0.0 0.0 0.00 0.00 0.00 52 1024.4
20260906064307 70 178 0.0 0.0 0.00 0.00 0.00 50 1024.5
20260906063804 70 178 0.0 0.0 0.00 0.00 0.00 50 1024.5
20260906063305 70 178 0.0 0.0 0.00 0.00 0.00 50 1024.5
20260906061305 72 178 0.0 0.0 0.00 0.00 0.00 48 1024.6
20260906060817 72 178 0.0 0.0 0.00 0.00 0.00 49 1024.6
20260906060305 73 178 0.0 2.0 0.00 0.00 0.00 47 1024.4
20260906054807 73 178 0.0 1.0 0.00 0.00 0.00 47 1024.0
20260906053805 74 178 0.0 0.0 0.00 0.00 0.00 46 1024.5
20260906051804 74 178 0.0 0.0 0.00 0.00 0.00 43 1025.1
20260906051305 74 178 0.0 0.0 0.00 0.00 0.00 43 1025.2
20260906050804 74 178 0.0 0.0 0.00 0.00 0.00 42 1025.3
20260906044807 73 20 0.0 0.0 0.00 0.00 0.00 44 1025.0
20260906044307 73 20 0.0 0.0 0.00 0.00 0.00 44 1024.7
20260906043805 73 20 0.0 0.0 0.00 0.00 0.00 44 1024.5
20260906043305 73 20 0.0 0.0 0.00 0.00 0.00 44 1024.5
20260906041804 72 20 0.0 0.0 0.00 0.00 0.00 44 1024.3
20260906041305 72 20 0.0 0.0 0.00 0.00 0.00 45 1024.3
20260906040804 72 20 0.0 0.0 0.00 0.00 0.00 45 1024.2
20260906040304 72 20 0.0 0.0 0.00 0.00 0.00 45 1024.1
20260906034806 72 20 0.0 0.0 0.00 0.00 0.00 44 1023.7
20260906034307 73 20 0.0 0.0 0.00 0.00 0.00 42 1023.7
20260906033804 73 20 0.0 0.0 0.00 0.00 0.00 42 1023.6
20260906033305 73 20 0.0 0.0 0.00 0.00 0.00 42 1023.5
20260906031305 75 20 0.0 0.0 0.00 0.00 0.00 39 1023.6
20260906030804 76 20 0.0 0.0 0.00 0.00 0.00 38 1023.5
20260906024808 76 20 0.0 0.0 0.00 0.00 0.00 37 1022.4
20260906024306 76 20 0.0 0.0 0.00 0.00 0.00 38 1022.4
20260906023804 76 20 0.0 0.0 0.00 0.00 0.00 38 1022.4
20260906023304 77 20 0.0 0.0 0.00 0.00 0.00 37 1022.3
20260906021805 78 20 0.0 0.0 0.00 0.00 0.00 36 1022.3
20260906021305 78 20 0.0 0.0 0.00 0.00 0.00 35 1022.2
20260906020804 79 20 0.0 0.0 0.00 0.00 0.00 35 1022.3
20260906020305 79 20 0.0 0.0 0.00 0.00 0.00 35 1022.3
20260906014806 80 18 0.0 0.0 0.00 0.00 0.00 34 1022.2
20260906014306 80 20 0.0 0.0 0.00 0.00 0.00 33 1022.1
20260906013805 81 14 0.0 0.0 0.00 0.00 0.00 33 1022.0
20260906013305 81 14 0.0 0.0 0.00 0.00 0.00 32 1021.9
20260906011805 82 51 0.0 0.0 0.00 0.00 0.00 31 1021.9
20260906010805 83 298 0.0 2.0 0.00 0.00 0.00 31 1021.9
20260906010304 83 16 0.0 3.0 0.00 0.00 0.00 30 1021.9
20260906004305 85 356 2.0 6.0 0.00 0.00 0.00 29 1022.0
20260906003804 85 341 0.0 5.0 0.00 0.00 0.00 28 1022.0
20260906003304 85 342 1.0 5.0 0.00 0.00 0.00 28 1022.0
20260906000804 88 0 2.0 5.0 0.00 0.00 0.00 26 1021.8
20260905234807 89 275 1.0 2.0 0.00 0.00 0.00 25 1021.7
20260905234305 89 336 0.0 0.0 0.00 0.00 0.00 25 1021.7
20260905233805 89 2 0.0 0.0 0.00 0.00 0.00 25 1021.7
20260905231805 90 13 0.0 2.0 0.00 0.00 0.00 24 1021.5
20260905230805 92 55 0.0 0.0 0.00 0.00 0.00 21 1021.4
20260905230304 92 53 0.0 2.0 0.00 0.00 0.00 23 1021.5
20260905223804 92 5 0.0 0.0 0.00 0.00 0.00 22 1021.2